This demonstration page uses our WeatherBlox Daily Observations layout. Learn more.

Left ArrowRight Arrow

Hourly Observations for August 9, 2022

Temp ( °F °C ) Dew Point ( °F °C ) Humidity (%) Winds ( mph kmh ) Pressure ( in mb ) Visibility ( mi km ) Precip ( " mm )
12:53 am 00:53 Clear 73 22.8 44 6.7 35 35 NE 13 20 29.92 1013 10 16 0.00 0.00
1:53 am 01:53 Clear 70 21.1 47 8.3 44 44 NE 14 22 29.95 1014 10 16 0.00 0.00
2:53 am 02:53 Clear 68 20 52 11.1 57 57 ENE 17 28 29.97 1015 10 16 0.00 0.00
3:53 am 03:53 Clear 67 19.4 52 11.1 59 59 ENE 16 26 29.99 1016 10 16 0.00 0.00
4:53 am 04:53 Clear 63 17.2 49 9.4 60 60 ENE 13 20 30.04 1017 10 16 0.00 0.00
5:53 am 05:53 Clear 62 16.7 47 8.3 58 58 NE 17 28 30.06 1018 10 16 0.00 0.00
6:53 am 06:53 Sunny 61 16.1 46 7.8 58 58 ENE 14 22 30.10 1019 10 16 0.00 0.00
7:53 am 07:53 Sunny 65 18.3 46 7.8 50 50 ENE 13 20 30.12 1020 10 16 0.00 0.00
8:53 am 08:53 Sunny 68 20 46 7.8 45 45 E 13 20 30.15 1021 10 16 0.00 0.00
9:53 am 09:53 Sunny 72 22.2 46 7.8 40 40 E 14 22 30.15 1021 10 16 0.00 0.00
10:53 am 10:53 Sunny 76 24.4 45 7.2 33 33 E 14 22 30.14 1021 10 16 0.00 0.00
11:53 am 11:53 Sunny 81 27.2 46 7.8 29 29 E 14 22 30.12 1020 10 16 0.00 0.00
12:53 pm 12:53 Sunny 84 28.9 46 7.8 27 27 E 13 20 30.09 1019 10 16 0.00 0.00
1:53 pm 13:53 Sunny 86 30 45 7.2 24 24 ENE 13 20 30.07 1018 10 16 0.00 0.00
2:53 pm 14:53 Sunny 88 31.1 44 6.7 22 22 ENE 12 19 30.05 1018 10 16 0.00 0.00
3:53 pm 15:53 Sunny 89 31.7 44 6.7 21 21 undefined N/A 30.04 1017 10 16 0.00 0.00
4:53 pm 16:53 Sunny 91 32.8 44 6.7 20 20 E 9 15 30.02 1017 10 16 0.00 0.00
5:53 pm 17:53 Sunny 92 33.3 45 7.2 20 20 E 10 17 30.01 1016 10 16 0.00 0.00
6:53 pm 18:53 Sunny 89 31.7 45 7.2 22 22 ENE 16 26 30.01 1016 10 16 0.00 0.00
7:53 pm 19:53 Sunny 86 30 46 7.8 25 25 ENE 15 24 30.01 1016 10 16 0.00 0.00
8:53 pm 20:53 Clear 81 27.2 45 7.2 28 28 E 12 19 30.02 1017 10 16 0.00 0.00
9:53 pm 21:53 Clear 76 24.4 44 6.7 32 32 E 12 19 30.04 1017 10 16 0.00 0.00
10:53 pm 22:53 Clear 74 23.3 44 6.7 34 34 E 10 17 30.04 1017 10 16 0.00 0.00
11:53 pm 23:53 Clear 72 22.2 43 6.1 35 35 ENE 10 17 30.03 1017 10 16 0.00 0.00

Powered by AerisWeather